Weather in Badulla

Sri Lanka     6°58′57″N   81°03′21″E
temp.,
°C
wind,
m/s
gust,
m/s
humid.,
%
clouds,
%
prec.,
mm/h
press.,
hPa
HPBL,
m
17 april, sat
sat1723:30+19wnw2398100 5.6 1015138
02:30+20sw2288100 0.7 101225
05:30+19sw2282100 0.8 101320
08:30+24nne116653 0.0 1015419
11:30+27ne325986 0.0 10141182
14:30+26ne2360100 2.0 10111422
17:30+23ne118186 3.2 101234
20:30+20wsw228559 0.0 101515
18 april, sun
sun1823:30+20w118660 0.1 101611
02:30+19sw228457 0.1 101311
05:30+19sw228385 0.2 101422
08:30+24sse116687 0.0 1016378
11:30+28nne2346100 0.0 10141258
14:30+28ne344712 0.1 10101732
17:30+24nne2275100 1.3 101251
20:30+21wsw2184100 0.1 101419
19 april, mon
mon1923:30+20wnw1185100 0.1 101515
02:30+19wsw2285100 0.0 101216
05:30+19wsw2282100 0.0 101314
08:30+24nnw116672 0.0 1015447
11:30+28ne2250100 0.0 10131589
14:30+28ne2245100 0.1 10091995
17:30+24nne2270100 0.1 101041
20:30+21w228097 0.0 101219
20 april, tue
tue2023:30+20w2282100 0.0 101317
02:30+19wsw227898 0.0 101118
05:30+19sw227093 0.0 101221
08:30+25sse105871 0.0 1013382
11:30+28nne234983 0.0 10121461
14:30+28nne3346100 0.0 10091691
17:30+25ene116418 0.1 100915
20:30+21sw22825 0.1 101218
21 april, wed
wed2123:30+20w22825 0.1 101313
02:30+19wsw228115 0.1 101114
05:30+19sw2278100 0.1 101215
08:30+25ese116571 0.0 1014524
11:30+27ne22545 0.1 10131641
14:30+28ene234815 0.3 10102021
17:30+24ene227358 0.7 101171
20:30+20sw22834 0.1 101323